Enterprise, AL

9:20 PM CST on December 09, 2016 (GMT -0600)
Fort Rucker / Ozark

Weather History for KLOR - December, 2012

Change the Weather History Date:

Monday, December 17, 2012

  Actual Average (KOZR) Record (KOZR)
Temperature  
Mean Temperature 60 °F -  
Max Temperature 64 °F 58 °F 77 °F (2001)
Min Temperature 57 °F 37 °F 28 °F (2007)
Degree Days  
Heating Degree Days 4    
Growing Degree Days 10 (Base 50)    
Moisture  
Dew Point 58 °F    
Average Humidity 91    
Maximum Humidity 100    
Minimum Humidity 82    
Precipitation  
Precipitation 0.96 in - - ()
Sea Level Pressure  
Sea Level Pressure 29.82 in    
Wind  
Wind Speed 4 mph (SSW)    
Max Wind Speed 20 mph    
Max Gust Speed 30 mph    
Visibility 8 miles    
Events Fog , Rain , Thunderstorm    
Averages and records for this station are not official NWS values.
T = Trace of Precipitation, MM = Missing Value Source: NWS Daily Summary

Daily Weather History Graph

Daily Weather History Graph

Search for Another Location

Airport or City:

Trip Planner

Search our weather history database for the weather conditions in past years. The results will help you decide how hot, cold, wet, or windy it might be!

Date:

Astronomy

Dec. 17, 2012 Rise Set
Actual Time 6:36 AM CST 4:42 PM CST
Civil Twilight 6:09 AM CST 5:09 PM CST
Nautical Twilight 5:38 AM CST 5:39 PM CST
Astronomical Twilight 5:09 AM CST 6:09 PM CST
Moon 9:59 AM CST (12/17) 9:46 PM CST (12/17)
Length of Visible Light 11h 00m
Length of Day
10h 06m
Waxing Crescent, 25% of the Moon is Illuminated
Dec 17
Waxing Crescent
Dec 19
First Quarter
Dec 28
Full
Jan 4
Last Quarter
Jan 11
New

Hourly Weather History & Observations

Time (CST) Temp. Dew Point Humidity Pressure Visibility Wind Dir Wind Speed Gust Speed Precip Events Conditions
12:53 AM 57.9 °F 55.9 °F 93% 29.89 in 10.0 mi East 4.6 mph - N/A   Overcast
1:53 AM 57.9 °F 55.0 °F 90% 29.86 in 10.0 mi SSE 6.9 mph - N/A   Clear
2:53 AM 59.0 °F 55.0 °F 87% 29.84 in 10.0 mi Calm Calm - N/A   Scattered Clouds
3:53 AM 59.0 °F 55.0 °F 87% 29.84 in 10.0 mi Calm Calm - N/A   Overcast
4:28 AM 59.0 °F 55.4 °F 88% 29.84 in 10.0 mi Calm Calm - N/A Thunderstorm Thunderstorm
4:43 AM 59.0 °F 55.4 °F 88% 29.82 in 10.0 mi South 4.6 mph - N/A   Overcast
4:53 AM 60.1 °F 55.9 °F 86% 29.81 in 10.0 mi South 6.9 mph - N/A   Overcast
5:08 AM 60.8 °F 55.4 °F 82% 29.81 in 10.0 mi South 5.8 mph - N/A Thunderstorm Thunderstorm
5:23 AM 60.8 °F 55.4 °F 82% 29.83 in 10.0 mi South 4.6 mph - N/A   Mostly Cloudy
5:33 AM 60.8 °F 55.4 °F 82% 29.83 in 10.0 mi Variable 3.5 mph - N/A Thunderstorm Thunderstorm
5:53 AM 60.1 °F 55.0 °F 83% 29.83 in 10.0 mi South 4.6 mph - N/A Thunderstorm Thunderstorm
6:53 AM 59.0 °F 57.0 °F 93% 29.86 in 3.0 mi NNE 5.8 mph - 0.05 in Rain , Thunderstorm Heavy Thunderstorms and Rain
7:06 AM 59.0 °F 55.4 °F 88% 29.86 in 3.0 mi NE 3.5 mph - 0.05 in Rain Rain
7:18 AM 59.0 °F 55.4 °F 88% 29.85 in 7.0 mi ENE 3.5 mph - 0.06 in Rain Light Rain
7:53 AM 59.0 °F 57.0 °F 93% 29.82 in 10.0 mi Calm Calm - 0.08 in   Overcast
8:03 AM 59.0 °F 57.2 °F 94% 29.83 in 10.0 mi Calm Calm - N/A Thunderstorm Overcast
8:19 AM 60.8 °F 57.2 °F 88% 29.83 in 10.0 mi Calm Calm - N/A   Overcast
8:26 AM 59.0 °F 57.2 °F 94% 29.82 in 10.0 mi ENE 3.5 mph - 0.00 in Rain , Thunderstorm Light Thunderstorms and Rain
8:53 AM 60.1 °F 57.0 °F 90% 29.82 in 10.0 mi Calm Calm - 0.00 in Thunderstorm Thunderstorm
9:52 AM 60.1 °F 57.9 °F 93% 29.84 in 1.2 mi North 8.1 mph - 0.13 in Rain , Thunderstorm Heavy Thunderstorms and Rain
10:00 AM 60.8 °F 59.0 °F 94% 29.86 in 0.5 mi NNW 19.6 mph 29.9 mph 0.30 in Fog , Rain , Thunderstorm Heavy Thunderstorms and Rain
10:06 AM 59.0 °F 57.2 °F 94% 29.85 in 0.8 mi NNE 11.5 mph 27.6 mph 0.42 in Rain , Thunderstorm Heavy Thunderstorms and Rain
10:13 AM 59.0 °F 57.2 °F 94% 29.85 in 1.0 mi North 5.8 mph 18.4 mph 0.48 in Rain , Thunderstorm Heavy Thunderstorms and Rain
10:28 AM 59.0 °F 55.4 °F 88% 29.82 in 3.0 mi East 4.6 mph - 0.56 in Rain , Thunderstorm Thunderstorms and Rain
10:53 AM 59.0 °F 57.0 °F 93% 29.84 in 7.0 mi South 3.5 mph - 0.58 in Rain , Thunderstorm Light Thunderstorms and Rain
11:40 AM 60.8 °F 57.2 °F 88% 29.81 in 5.0 mi South 4.6 mph - 0.09 in Rain , Thunderstorm Thunderstorms and Rain
11:53 AM 60.1 °F 59.0 °F 96% 29.81 in 6.0 mi South 4.6 mph - 0.11 in Rain , Thunderstorm Light Thunderstorms and Rain
12:17 PM 60.8 °F 59.0 °F 94% 29.79 in 10.0 mi Variable 6.9 mph - 0.01 in Rain Light Rain
12:33 PM 60.8 °F 60.8 °F 100% 29.79 in 10.0 mi SW 3.5 mph - 0.01 in Thunderstorm Thunderstorm
12:41 PM 62.6 °F 60.8 °F 94% 29.78 in 10.0 mi Calm Calm - 0.01 in Thunderstorm Thunderstorm
12:53 PM 62.1 °F 60.1 °F 93% 29.77 in 10.0 mi SSW 8.1 mph - 0.01 in   Overcast
1:53 PM 63.0 °F 61.0 °F 93% 29.76 in 10.0 mi SSW 8.1 mph - 0.00 in   Overcast
2:53 PM 63.0 °F 61.0 °F 93% 29.74 in 10.0 mi Calm Calm - N/A   Overcast
3:25 PM 64.4 °F 60.8 °F 88% 29.75 in 10.0 mi SW 5.8 mph - N/A   Overcast
3:53 PM 64.0 °F 61.0 °F 90% 29.76 in 10.0 mi SW 6.9 mph - N/A   Overcast
6:53 PM 63.0 °F 61.0 °F 93% 29.79 in 7.0 mi SW 4.6 mph - N/A   Overcast
7:53 PM 64.0 °F 62.1 °F 93% 29.80 in 7.0 mi WSW 5.8 mph - N/A   Overcast
8:53 PM 64.0 °F 62.1 °F 93% 29.80 in 7.0 mi WSW 5.8 mph - N/A   Overcast
9:46 PM 62.6 °F 60.8 °F 94% 29.81 in 9.0 mi WSW 5.8 mph - N/A   Scattered Clouds
9:53 PM 63.0 °F 60.1 °F 90% 29.81 in 9.0 mi WSW 5.8 mph - N/A   Partly Cloudy
10:53 PM 61.0 °F 59.0 °F 93% 29.82 in 8.0 mi WSW 5.8 mph - N/A   Partly Cloudy
11:53 PM 60.1 °F 57.9 °F 93% 29.82 in 6.0 mi WSW 4.6 mph - N/A   Partly Cloudy